AAL1617 MYNN-KDCA

Flight info

Callsign AAL1617
Flight time N/A
Altitude 32000
Route INGRA G437 ELBOW DCT GRUBR Y299 SEELO DCT GARIC DCT RANAY DCT TANJA DCT WAVES CAPSS4
Aircraft B738/M-SDE2E3FGHIRWXY/LB1

Departure

Time 2026-05-06 20:54
Airport Lynden Pindling International Airport (MYNN)

Arrival

Time N/A
Airport Ronald Reagan Washington National Airport (KDCA)
Time Latitude Longitude Altitude Speed Heading
2026-05-06 20:44 25.05088 -77.46975 16 ft 0 kts 84°
2026-05-06 20:46 25.05087 -77.46976 16 ft 1 kts 84°
2026-05-06 20:46 25.05086 -77.46993 16 ft 3 kts 84°
2026-05-06 20:46 25.05084 -77.47013 16 ft 3 kts 79°
2026-05-06 20:47 25.05079 -77.47033 17 ft 3 kts 49°
2026-05-06 20:47 25.05065 -77.47044 17 ft 3 kts
2026-05-06 20:47 25.05047 -77.47041 17 ft 3 kts 325°
2026-05-06 20:47 25.05038 -77.47033 18 ft 2 kts 314°
2026-05-06 20:48 25.05026 -77.47019 18 ft 2 kts 314°
2026-05-06 20:48 25.05023 -77.47015 18 ft 0 kts 314°
2026-05-06 20:51 25.05023 -77.47016 18 ft 1 kts 314°
2026-05-06 20:51 25.05058 -77.47061 18 ft 11 kts 290°
2026-05-06 20:51 25.05038 -77.47136 18 ft 11 kts 275°
2026-05-06 20:51 25.05081 -77.47202 17 ft 11 kts 315°
2026-05-06 20:52 25.05134 -77.47260 16 ft 11 kts 315°
2026-05-06 20:52 25.05185 -77.47316 19 ft 10 kts 313°
2026-05-06 20:52 25.05216 -77.47383 17 ft 10 kts 275°
2026-05-06 20:52 25.05209 -77.47457 19 ft 10 kts 251°
2026-05-06 20:53 25.05180 -77.47523 22 ft 10 kts 234°
2026-05-06 20:53 25.05127 -77.47510 19 ft 10 kts 132°
2026-05-06 20:53 25.05023 -77.47393 20 ft 41 kts 134°
2026-05-06 20:53 25.04674 -77.47005 20 ft 100 kts 135°
2026-05-06 20:54 25.04059 -77.46323 19 ft 149 kts 135°
2026-05-06 20:54 25.03240 -77.45415 99 ft 179 kts 133°
2026-05-06 20:54 25.02351 -77.44423 604 ft 186 kts 132°
2026-05-06 20:54 25.01464 -77.43400 1222 ft 182 kts 121°
2026-05-06 20:55 25.01157 -77.41997 1476 ft 201 kts 82°
2026-05-06 20:55 25.01705 -77.40606 1902 ft 206 kts 48°
2026-05-06 20:55 25.02940 -77.39708 2042 ft 222 kts 22°
2026-05-06 20:55 25.04440 -77.39067 2196 ft 241 kts 22°
2026-05-06 20:56 25.06076 -77.38399 2472 ft 258 kts 19°
2026-05-06 20:56 25.07777 -77.37734 3077 ft 262 kts 18°
2026-05-06 20:56 25.09512 -77.37059 3599 ft 268 kts 18°
2026-05-06 20:56 25.10694 -77.36597 3925 ft 264 kts 18°
2026-05-06 20:57 25.12447 -77.35906 3979 ft 271 kts 18°
2026-05-06 20:57 25.14222 -77.35202 3991 ft 270 kts 19°
2026-05-06 20:57 25.15989 -77.34497 3991 ft 269 kts 19°
2026-05-06 20:57 25.17728 -77.33801 3994 ft 270 kts 19°
2026-05-06 20:58 25.19501 -77.33090 3994 ft 272 kts 19°
2026-05-06 20:58 25.21301 -77.32366 3984 ft 272 kts 19°
2026-05-06 20:58 25.23055 -77.31661 3988 ft 272 kts 19°
2026-05-06 20:58 25.24834 -77.30944 3986 ft 272 kts 19°
2026-05-06 20:59 25.26611 -77.30228 3979 ft 272 kts 19°
2026-05-06 20:59 25.28380 -77.29516 3974 ft 271 kts 19°
2026-05-06 20:59 25.30153 -77.28802 3976 ft 271 kts 19°
2026-05-06 20:59 25.31917 -77.28091 3973 ft 270 kts 19°
2026-05-06 21:00 25.33681 -77.27379 3973 ft 269 kts 19°
2026-05-06 21:00 25.35440 -77.26669 3987 ft 269 kts 19°
2026-05-06 21:00 25.37212 -77.25954 4247 ft 274 kts 19°
2026-05-06 21:00 25.39009 -77.25229 4848 ft 275 kts 19°
2026-05-06 21:01 25.40805 -77.24503 5509 ft 275 kts 19°
2026-05-06 21:01 25.42614 -77.23772 6072 ft 279 kts 19°
2026-05-06 21:01 25.44450 -77.23031 6623 ft 282 kts 19°
2026-05-06 21:01 25.46298 -77.22283 7228 ft 283 kts 19°
2026-05-06 21:02 25.48121 -77.21447 7842 ft 284 kts 23°
2026-05-06 21:02 25.49924 -77.20531 8450 ft 286 kts 24°
2026-05-06 21:02 25.51732 -77.19593 9073 ft 288 kts 24°
2026-05-06 21:02 25.53549 -77.18647 9714 ft 289 kts 24°
2026-05-06 21:03 25.55379 -77.17699 10298 ft 293 kts 24°
2026-05-06 21:03 25.57285 -77.16715 10474 ft 312 kts 24°
2026-05-06 21:03 25.59308 -77.15674 10607 ft 330 kts 24°
2026-05-06 21:03 25.61442 -77.14578 10745 ft 347 kts 24°
2026-05-06 21:04 25.63684 -77.13428 10861 ft 362 kts 24°
2026-05-06 21:04 25.66017 -77.12231 10966 ft 377 kts 24°
2026-05-06 21:04 25.68435 -77.10990 11068 ft 389 kts 24°
2026-05-06 21:04 25.70911 -77.09720 11362 ft 394 kts 24°
2026-05-06 21:05 25.73404 -77.08440 11782 ft 396 kts 24°
2026-05-06 21:05 25.75904 -77.07155 12235 ft 396 kts 24°
2026-05-06 21:05 25.78410 -77.05868 12674 ft 398 kts 23°
2026-05-06 21:05 25.80926 -77.04575 13102 ft 399 kts 23°
2026-05-06 21:06 25.83452 -77.03277 13531 ft 401 kts 23°
2026-05-06 21:06 25.85990 -77.01972 13947 ft 403 kts 23°
2026-05-06 21:06 25.88537 -77.00662 14328 ft 404 kts 23°
2026-05-06 21:06 25.91095 -76.99346 14718 ft 406 kts 23°
2026-05-06 21:07 25.93661 -76.98025 15108 ft 407 kts 23°
2026-05-06 21:07 25.96236 -76.96699 15493 ft 409 kts 22°
2026-05-06 21:07 25.98817 -76.95368 15880 ft 410 kts 22°
2026-05-06 21:07 26.01406 -76.94033 16252 ft 411 kts 22°
2026-05-06 21:08 26.04009 -76.92691 16607 ft 413 kts 22°
2026-05-06 21:08 26.06623 -76.91342 16950 ft 415 kts 22°
2026-05-06 21:08 26.09246 -76.89987 17284 ft 417 kts 22°
2026-05-06 21:08 26.11882 -76.88626 17616 ft 418 kts 22°
2026-05-06 21:09 26.14525 -76.87259 17931 ft 420 kts 22°
2026-05-06 21:09 26.17181 -76.85885 18264 ft 421 kts 22°
2026-05-06 21:09 26.19845 -76.84507 18548 ft 423 kts 22°
2026-05-06 21:09 26.22519 -76.83122 18788 ft 425 kts 22°
2026-05-06 21:10 26.25209 -76.81729 19017 ft 427 kts 22°
2026-05-06 21:10 26.27914 -76.80327 19227 ft 430 kts 21°
2026-05-06 21:10 26.30602 -76.78933 19436 ft 433 kts 21°
2026-05-06 21:10 26.33335 -76.77514 19674 ft 435 kts 21°
2026-05-06 21:11 26.36083 -76.76088 19910 ft 436 kts 21°
2026-05-06 21:11 26.38847 -76.74682 20121 ft 437 kts 18°
2026-05-06 21:11 26.41783 -76.73891 20295 ft 434 kts
2026-05-06 21:11 26.44783 -76.74025 20551 ft 431 kts 349°
2026-05-06 21:12 26.47664 -76.74920 20758 ft 431 kts 337°
2026-05-06 21:12 26.50426 -76.76235 20967 ft 433 kts 336°
2026-05-06 21:12 26.53191 -76.77590 21158 ft 435 kts 335°
2026-05-06 21:12 26.55966 -76.78955 21354 ft 437 kts 335°
2026-05-06 21:13 26.58755 -76.80318 21561 ft 438 kts 335°
2026-05-06 21:13 26.61558 -76.81676 21758 ft 440 kts 336°
2026-05-06 21:13 26.64372 -76.83029 21947 ft 441 kts 336°
2026-05-06 21:13 26.67199 -76.84382 22131 ft 443 kts 336°
2026-05-06 21:14 26.70039 -76.85737 22310 ft 444 kts 336°
2026-05-06 21:14 26.72886 -76.87094 22484 ft 446 kts 336°
2026-05-06 21:14 26.75744 -76.88456 22696 ft 446 kts 336°
2026-05-06 21:14 26.78606 -76.89821 22862 ft 448 kts 336°
2026-05-06 21:15 26.81474 -76.91189 23015 ft 450 kts 336°
2026-05-06 21:15 26.84356 -76.92565 23173 ft 451 kts 336°
2026-05-06 21:15 26.87248 -76.93947 23341 ft 452 kts 335°
2026-05-06 21:15 26.90144 -76.95331 23489 ft 453 kts 335°
2026-05-06 21:16 26.93047 -76.96720 23648 ft 454 kts 335°
2026-05-06 21:16 26.95958 -76.98114 23777 ft 456 kts 335°
2026-05-06 21:16 26.98873 -76.99510 23929 ft 456 kts 335°
2026-05-06 21:16 27.01789 -77.00907 24088 ft 456 kts 335°
2026-05-06 21:17 27.04706 -77.02306 24241 ft 456 kts 335°
2026-05-06 21:17 27.07622 -77.03705 24373 ft 457 kts 335°
2026-05-06 21:17 27.10549 -77.05110 24505 ft 457 kts 335°
2026-05-06 21:17 27.13474 -77.06515 24637 ft 458 kts 335°
2026-05-06 21:18 27.16403 -77.07923 24777 ft 458 kts 335°
2026-05-06 21:18 27.19333 -77.09332 24909 ft 458 kts 335°
2026-05-06 21:18 27.22268 -77.10744 25040 ft 459 kts 335°
2026-05-06 21:18 27.25202 -77.12157 25175 ft 459 kts 335°
2026-05-06 21:19 27.28139 -77.13572 25285 ft 460 kts 335°
2026-05-06 21:19 27.31084 -77.14991 25406 ft 460 kts 335°
2026-05-06 21:19 27.34025 -77.16410 25536 ft 460 kts 335°
2026-05-06 21:19 27.36965 -77.17828 25721 ft 459 kts 335°
2026-05-06 21:20 27.39892 -77.19241 25931 ft 457 kts 335°
2026-05-06 21:20 27.42813 -77.20652 26149 ft 456 kts 335°
2026-05-06 21:20 27.45725 -77.22059 26349 ft 455 kts 335°
2026-05-06 21:20 27.48626 -77.23462 26574 ft 453 kts 335°
2026-05-06 21:21 27.51518 -77.24861 26860 ft 451 kts 335°
2026-05-06 21:21 27.54350 -77.26233 27124 ft 449 kts 335°
2026-05-06 21:21 27.57213 -77.27620 27342 ft 448 kts 335°
2026-05-06 21:21 27.60075 -77.29008 27549 ft 447 kts 335°
2026-05-06 21:22 27.62931 -77.30393 27786 ft 446 kts 334°
2026-05-06 21:22 27.65778 -77.31775 28048 ft 445 kts 334°
2026-05-06 21:22 27.68618 -77.33154 28313 ft 443 kts 334°
2026-05-06 21:22 27.71447 -77.34529 28575 ft 442 kts 334°
2026-05-06 21:23 27.74269 -77.35900 28838 ft 441 kts 334°
2026-05-06 21:23 27.77084 -77.37270 29115 ft 440 kts 334°
2026-05-06 21:23 27.79886 -77.38634 29410 ft 438 kts 334°
2026-05-06 21:23 27.82680 -77.39994 29724 ft 436 kts 334°
2026-05-06 21:24 27.85461 -77.41349 30038 ft 435 kts 334°
2026-05-06 21:24 27.88236 -77.42702 30284 ft 434 kts 334°
2026-05-06 21:24 27.91005 -77.44052 30524 ft 433 kts 334°
2026-05-06 21:24 27.93762 -77.45398 30752 ft 432 kts 334°
2026-05-06 21:25 27.96517 -77.46744 31001 ft 431 kts 334°
2026-05-06 21:25 27.99267 -77.48087 31232 ft 430 kts 334°
2026-05-06 21:25 28.02012 -77.49429 31456 ft 430 kts 334°
2026-05-06 21:25 28.04754 -77.50771 31675 ft 429 kts 334°
2026-05-06 21:26 28.07490 -77.52110 31923 ft 428 kts 334°
2026-05-06 21:26 28.10218 -77.53446 32092 ft 428 kts 334°
2026-05-06 21:26 28.12955 -77.54787 32080 ft 428 kts 334°
2026-05-06 21:27 28.18410 -77.57462 32073 ft 426 kts 334°
2026-05-06 21:27 28.23837 -77.60126 32063 ft 424 kts 333°
2026-05-06 21:28 28.29248 -77.62786 32082 ft 423 kts 333°
2026-05-06 21:28 28.34656 -77.65448 32079 ft 424 kts 333°
2026-05-06 21:29 28.40067 -77.68113 32094 ft 424 kts 333°
2026-05-06 21:29 28.45493 -77.70789 32080 ft 425 kts 333°
2026-05-06 21:30 28.50923 -77.73470 32079 ft 426 kts 333°
2026-05-06 21:30 28.56328 -77.76141 32082 ft 426 kts 333°
2026-05-06 21:31 28.61769 -77.78833 32082 ft 427 kts 333°
2026-05-06 21:31 28.67213 -77.81530 32082 ft 427 kts 333°
2026-05-06 21:32 28.72657 -77.84230 32090 ft 427 kts 333°
2026-05-06 21:32 28.80824 -77.88286 32087 ft 427 kts 333°
2026-05-06 21:33 28.86263 -77.90991 32085 ft 426 kts 333°
2026-05-06 21:33 28.91696 -77.93696 32077 ft 426 kts 333°
2026-05-06 21:34 28.97131 -77.96405 32080 ft 426 kts 333°
2026-05-06 21:34 29.02560 -77.99115 32099 ft 426 kts 332°
2026-05-06 21:35 29.07987 -78.01826 32096 ft 425 kts 332°
2026-05-06 21:35 29.13409 -78.04538 32098 ft 425 kts 332°
2026-05-06 21:36 29.18826 -78.07251 32081 ft 425 kts 332°
2026-05-06 21:36 29.24239 -78.09965 32081 ft 425 kts 332°
2026-05-06 21:37 29.29652 -78.12682 32103 ft 425 kts 332°
2026-05-06 21:37 29.35067 -78.15403 32089 ft 425 kts 332°
2026-05-06 21:38 29.40481 -78.18127 32087 ft 425 kts 332°
2026-05-06 21:38 29.43157 -78.19473 32071 ft 414 kts 332°
2026-05-06 21:38 29.45731 -78.20766 32077 ft 407 kts 332°
2026-05-06 21:39 29.50889 -78.23367 32091 ft 404 kts 332°
2026-05-06 21:39 29.56038 -78.25970 32090 ft 404 kts 332°
2026-05-06 21:40 29.61186 -78.28573 32098 ft 405 kts 332°
2026-05-06 21:40 29.66345 -78.31184 32090 ft 405 kts 332°
2026-05-06 21:41 29.71504 -78.33798 32087 ft 405 kts 332°
2026-05-06 21:41 29.76670 -78.36418 32087 ft 406 kts 332°
2026-05-06 21:42 29.81837 -78.39041 32087 ft 406 kts 332°
2026-05-06 21:42 29.87006 -78.41668 32088 ft 406 kts 332°
2026-05-06 21:43 29.92182 -78.44302 32090 ft 407 kts 332°
2026-05-06 21:43 29.97360 -78.46940 32085 ft 407 kts 332°
2026-05-06 21:44 30.02499 -78.49561 32084 ft 407 kts 332°
2026-05-06 21:44 30.07667 -78.52200 32084 ft 406 kts 332°
2026-05-06 21:45 30.12949 -78.54568 32078 ft 412 kts 341°
2026-05-06 21:45 30.18702 -78.55339 32077 ft 423 kts 354°
2026-05-06 21:46 30.23617 -78.54752 32085 ft 429 kts
2026-05-06 21:46 30.29535 -78.53823 32085 ft 429 kts
2026-05-06 21:47 30.35451 -78.52943 32083 ft 429 kts 360°
2026-05-06 21:47 30.41371 -78.52090 32084 ft 429 kts 360°
2026-05-06 21:48 30.47293 -78.51179 32097 ft 430 kts
2026-05-06 21:48 30.53214 -78.50209 32082 ft 430 kts
2026-05-06 21:49 30.59138 -78.49237 32082 ft 430 kts
2026-05-06 21:49 30.65054 -78.48274 32080 ft 429 kts
2026-05-06 21:50 30.70967 -78.47315 32082 ft 429 kts
2026-05-06 21:50 30.76882 -78.46355 32080 ft 429 kts
2026-05-06 21:51 30.82793 -78.45394 32080 ft 429 kts
2026-05-06 21:51 30.88705 -78.44432 32079 ft 429 kts
2026-05-06 21:52 30.94607 -78.43470 32082 ft 428 kts
2026-05-06 21:52 31.00508 -78.42507 32093 ft 428 kts
2026-05-06 21:53 31.06413 -78.41543 32088 ft 428 kts
2026-05-06 21:53 31.12313 -78.40577 32076 ft 428 kts
2026-05-06 21:54 31.18214 -78.39611 32078 ft 428 kts
2026-05-06 21:54 31.24115 -78.38643 32076 ft 428 kts
2026-05-06 21:55 31.30013 -78.37674 32089 ft 428 kts
2026-05-06 21:55 31.35916 -78.36704 32078 ft 428 kts
2026-05-06 21:56 31.41818 -78.35732 32077 ft 428 kts
2026-05-06 21:56 31.47723 -78.34759 32072 ft 428 kts
2026-05-06 21:57 31.53627 -78.33784 32076 ft 428 kts
2026-05-06 21:57 31.59537 -78.32808 32079 ft 429 kts
2026-05-06 21:58 31.65447 -78.31830 32070 ft 429 kts
2026-05-06 21:58 31.71366 -78.30849 32074 ft 429 kts
2026-05-06 21:59 31.77284 -78.29867 32068 ft 430 kts
2026-05-06 21:59 31.83164 -78.28889 32081 ft 430 kts
2026-05-06 22:00 31.89090 -78.27904 32068 ft 430 kts
2026-05-06 22:00 31.95018 -78.26916 32069 ft 430 kts
2026-05-06 22:01 32.00945 -78.25927 32059 ft 430 kts
2026-05-06 22:01 32.06878 -78.24996 32062 ft 430 kts 359°
2026-05-06 22:02 32.12814 -78.24148 32068 ft 430 kts 359°
2026-05-06 22:02 32.18762 -78.23299 32061 ft 431 kts 359°
2026-05-06 22:03 32.24715 -78.22437 32060 ft 431 kts 359°
2026-05-06 22:03 32.30676 -78.21567 32057 ft 432 kts 359°
2026-05-06 22:04 32.36637 -78.20695 32067 ft 432 kts 359°
2026-05-06 22:04 32.42614 -78.19819 32059 ft 433 kts 359°
2026-05-06 22:05 32.48602 -78.18940 32054 ft 434 kts 359°
2026-05-06 22:05 32.54598 -78.18059 32053 ft 434 kts 359°
2026-05-06 22:06 32.60596 -78.17176 32063 ft 435 kts 359°
2026-05-06 22:06 32.66614 -78.16290 32053 ft 436 kts 359°
2026-05-06 22:07 32.72646 -78.15400 32048 ft 437 kts 359°
2026-05-06 22:07 32.78696 -78.14507 32047 ft 438 kts 359°
2026-05-06 22:08 32.84753 -78.13610 32047 ft 439 kts 359°
2026-05-06 22:08 32.90782 -78.12717 32043 ft 440 kts 359°
2026-05-06 22:09 32.96852 -78.11816 32040 ft 440 kts 359°
2026-05-06 22:09 33.02925 -78.10914 32041 ft 440 kts 359°
2026-05-06 22:10 33.09000 -78.10010 32039 ft 440 kts 359°
2026-05-06 22:10 33.15069 -78.09106 32042 ft 440 kts 359°
2026-05-06 22:11 33.21149 -78.08199 32046 ft 441 kts 359°
2026-05-06 22:11 33.27239 -78.07290 32039 ft 441 kts 359°
2026-05-06 22:12 33.33336 -78.06378 32037 ft 442 kts 359°
2026-05-06 22:12 33.39442 -78.05463 32046 ft 443 kts 359°
2026-05-06 22:13 33.45565 -78.04545 32037 ft 444 kts 359°
2026-05-06 22:13 33.51698 -78.03623 32033 ft 445 kts 359°
2026-05-06 22:14 33.57843 -78.02698 32031 ft 445 kts 359°
2026-05-06 22:14 33.63998 -78.01771 32051 ft 446 kts
2026-05-06 22:15 33.70166 -78.00840 32035 ft 447 kts
2026-05-06 22:15 33.76357 -77.99904 32020 ft 449 kts
2026-05-06 22:16 33.82555 -77.98966 32019 ft 450 kts
2026-05-06 22:16 33.88769 -77.98031 32033 ft 450 kts
2026-05-06 22:17 33.94994 -77.97308 32022 ft 450 kts 358°
2026-05-06 22:17 34.01235 -77.96675 32022 ft 450 kts 358°
2026-05-06 22:18 34.07488 -77.96020 32016 ft 451 kts 359°
2026-05-06 22:18 34.13751 -77.95344 32002 ft 453 kts 359°
2026-05-06 22:19 34.20021 -77.94652 32006 ft 453 kts 359°
2026-05-06 22:19 34.26301 -77.93956 31997 ft 453 kts 359°
2026-05-06 22:20 34.32578 -77.93262 32000 ft 453 kts 359°
2026-05-06 22:20 34.38849 -77.92569 32001 ft 452 kts 359°
2026-05-06 22:21 34.45078 -77.91881 32009 ft 452 kts 358°
2026-05-06 22:21 34.51343 -77.91186 31994 ft 452 kts 358°
2026-05-06 22:22 34.57607 -77.90491 31988 ft 452 kts 358°
2026-05-06 22:22 34.63865 -77.89794 31991 ft 451 kts 358°
2026-05-06 22:23 34.70120 -77.89098 31998 ft 451 kts 358°
2026-05-06 22:23 34.76377 -77.88401 31992 ft 452 kts 358°
2026-05-06 22:24 34.82635 -77.87702 31989 ft 452 kts 358°
2026-05-06 22:24 34.88894 -77.87002 31973 ft 452 kts 358°
2026-05-06 22:25 34.95158 -77.86301 31979 ft 452 kts 358°
2026-05-06 22:25 35.01429 -77.85598 31972 ft 453 kts 358°
2026-05-06 22:26 35.07704 -77.84893 31975 ft 453 kts 358°
2026-05-06 22:26 35.13987 -77.84185 31982 ft 454 kts 358°
2026-05-06 22:27 35.20278 -77.83476 31976 ft 454 kts 358°
2026-05-06 22:27 35.26573 -77.82765 31969 ft 454 kts 358°
2026-05-06 22:28 35.32827 -77.82058 31970 ft 454 kts 358°
2026-05-06 22:28 35.39121 -77.81345 31975 ft 454 kts 358°
2026-05-06 22:29 35.45414 -77.80629 31968 ft 454 kts 359°
2026-05-06 22:29 35.51706 -77.79626 31965 ft 457 kts
2026-05-06 22:30 35.57994 -77.78456 31967 ft 457 kts
2026-05-06 22:30 35.64276 -77.77311 31992 ft 456 kts 360°
2026-05-06 22:31 35.70554 -77.76199 31971 ft 455 kts 360°
2026-05-06 22:31 35.76806 -77.75103 31956 ft 453 kts 359°
2026-05-06 22:32 35.83022 -77.74012 31953 ft 450 kts 359°
2026-05-06 22:32 35.89210 -77.72923 31964 ft 448 kts 359°
2026-05-06 22:33 35.95383 -77.71837 31947 ft 447 kts 359°
2026-05-06 22:33 36.01543 -77.70751 31945 ft 447 kts 359°
2026-05-06 22:34 36.06664 -77.69846 31947 ft 447 kts 359°
2026-05-06 22:34 36.12828 -77.68756 31969 ft 448 kts 358°
2026-05-06 22:35 36.19013 -77.67661 31956 ft 450 kts 358°
2026-05-06 22:35 36.25215 -77.66559 31946 ft 451 kts 358°
2026-05-06 22:36 36.31434 -77.65452 31944 ft 452 kts 358°
2026-05-06 22:36 36.37664 -77.64342 31961 ft 453 kts 358°
2026-05-06 22:37 36.43909 -77.63226 31946 ft 454 kts 358°
2026-05-06 22:37 36.50161 -77.62108 31942 ft 454 kts 358°
2026-05-06 22:38 36.56414 -77.61082 31939 ft 452 kts 357°
2026-05-06 22:38 36.62660 -77.60122 31948 ft 453 kts 356°
2026-05-06 22:39 36.68906 -77.59152 31929 ft 452 kts 357°
2026-05-06 22:39 36.75141 -77.58162 31936 ft 451 kts 356°
2026-05-06 22:40 36.81356 -77.57182 31939 ft 449 kts 356°
2026-05-06 22:40 36.87512 -77.56207 31940 ft 449 kts 356°
2026-05-06 22:41 36.96786 -77.54734 31923 ft 447 kts 356°
2026-05-06 22:42 37.02994 -77.53746 31921 ft 447 kts 356°
2026-05-06 22:42 37.09123 -77.52769 31931 ft 447 kts 356°
2026-05-06 22:43 37.15302 -77.51783 31928 ft 448 kts 356°
2026-05-06 22:43 37.21501 -77.50793 31924 ft 450 kts 356°
2026-05-06 22:44 37.27717 -77.49796 31925 ft 451 kts 356°
2026-05-06 22:44 37.33960 -77.48794 31925 ft 454 kts 356°
2026-05-06 22:45 37.40242 -77.47783 31916 ft 456 kts 356°
2026-05-06 22:45 37.46548 -77.46766 31918 ft 458 kts 356°
2026-05-06 22:46 37.52874 -77.45744 31948 ft 459 kts 356°
2026-05-06 22:46 37.59231 -77.44703 31924 ft 463 kts 357°